Wind_Speed
17 20 22 24 26 28 29 31 33 34 36 38 40 40 41 42 43 43 43 42 42 42 42 40 38 38 37 37 36 36 35 33 32 32 31 31 31 30 28 26 25 26 26 26
19 21 22 24 26 29 31 33 35 37 40 42 43 44 46 45 44 45 44 44 44 43 42 41 40 39 39 38 38 37 37 36 35 35 35 35 35 33 32 30 28 28 28 28
18 21 22 24 27 29 29 33 36 38 40 42 44 44 43 42 42 45 44 44 43 41 40 39 38 37 36 37 36 36 36 36 36 36 36 37 37 36 34 33 31 30 30 30
16 18 20 23 25 27 28 31 34 36 38 40 39 39 34 34 38 39 39 40 40 38 37 35 34 33 33 33 33 34 34 35 36 37 38 38 39 38 36 36 35 34 33 33
17 18 20 23 25 28 29 31 33 34 35 34 32 32 31 32 37 38 36 34 33 33 33 32 31 30 30 30 31 32 33 34 36 37 37 38 38 39 38 38 38 37 36 36
16 18 21 25 27 28 30 30 31 30 28 24 22 23 29 33 37 38 35 32 30 30 30 31 31 31 31 31 31 32 33 34 36 37 38 38 39 40 40 41 40 39 38 37
20 21 24 26 27 28 28 28 28 24 18 17 17 20 28 32 35 38 39 39 35 33 33 32 32 32 33 33 33 34 35 36 37 38 39 39 39 40 41 42 42 40 40 39
21 24 25 25 25 26 25 26 24 21 14 11 14 18 22 27 31 34 36 38 36 35 34 33 33 33 34 34 34 35 36 37 38 38 38 38 38 39 40 40 41 40 40 40
21 23 23 24 24 24 24 22 20 17 13 8 11 14 16 17 21 26 29 30 31 31 30 31 31 32 32 33 33 34 35 36 36 36 35 36 36 37 38 38 39 39 39 39
21 22 22 23 24 25 24 21 17 15 13 9 8 11 14 16 16 17 18 20 22 23 23 25 26 27 28 29 30 31 32 32 31 31 31 31 32 33 35 35 34 36 36 36
21 22 22 22 23 24 22 20 17 15 14 11 10 11 13 13 13 12 11 13 15 15 16 17 18 19 21 22 23 23 23 24 24 24 25 26 26 27 29 29 30 30 31 32
20 21 21 20 21 22 21 20 18 16 14 13 12 12 12 12 11 9 5 4 6 7 9 9 8 9 11 12 12 14 14 14 15 15 16 17 18 20 21 23 23 24 24 23
19 21 23 23 22 22 21 20 19 18 16 15 14 15 15 13 12 10 9 7 4 1 1 3 3 2 2 2 3 4 3 4 5 7 7 8 9 10 10 11 11 11 11 11
18 20 21 21 20 19 19 20 20 20 18 16 15 16 15 14 14 14 12 12 12 9 8 7 6 5 4 4 5 5 5 5 4 3 1 0 0 0 1 1 2 3 4 5
20 20 19 19 19 18 18 19 20 21 21 19 17 17 18 17 16 17 16 15 16 16 14 14 12 12 10 10 11 10 10 9 9 8 7 7 6 5 4 3 2 3 5 6
22 20 19 19 20 19 18 19 20 20 21 21 20 19 19 20 20 21 21 21 20 19 18 18 17 16 15 14 13 12 11 11 10 9 9 8 7 6 5 5 5 6 7 9
24 22 21 20 19 19 20 19 19 19 20 21 20 20 20 21 22 22 22 22 22 22 21 20 19 17 16 15 14 13 12 11 10 9 9 8 7 6 7 7 8 9 11 12
24 23 20 19 19 20 19 18 17 18 18 19 19 20 19 19 19 20 21 21 21 20 20 19 18 17 16 15 14 13 12 12 11 11 10 10 10 10 10 10 10 11 13 14
25 23 21 20 18 18 17 16 16 16 17 17 18 18 17 17 18 20 21 20 20 20 19 19 18 17 17 16 16 15 14 14 13 13 12 12 12 12 12 12 12 13 14 16
24 23 22 21 19 18 17 16 15 15 16 16 17 17 17 17 19 20 20 20 20 20 19 19 18 18 18 17 17 16 16 16 16 16 15 15 15 14 14 14 14 14 14 15
23 23 22 21 20 18 17 16 16 15 16 15 15 16 16 17 17 18 19 19 19 19 19 19 19 19 19 18 18 18 18 18 18 18 18 18 17 17 17 17 17 17 16 16
21 22 22 20 19 18 17 16 16 16 15 14 14 14 14 15 16 16 17 17 18 18 18 18 19 19 19 19 19 19 19 19 20 20 20 20 20 20 20 20 20 19 18 17
18 20 21 20 19 18 17 16 15 15 15 14 13 12 12 13 14 15 15 16 16 17 17 17 18 18 19 19 20 20 20 20 20 21 22 22 22 22 22 21 22 21 20 18
15 17 18 19 18 17 17 17 16 15 15 14 12 11 11 12 12 13 14 14 15 15 16 16 17 17 18 18 18 19 19 20 20 21 22 22 23 23 23 22 23 24 22 21
11 14 16 17 17 17 17 17 16 15 15 14 13 11 10 10 11 11 12 12 13 14 14 15 16 16 16 17 17 18 19 19 20 20 21 22 22 23 24 24 24 25 25 23
8 10 12 14 15 16 16 16 16 16 15 14 13 11 10 9 9 9 10 11 11 12 13 14 14 15 15 16 17 17 18 19 19 20 21 21 22 23 24 24 25 26 26 26
Wind_Direction
284 282 284 287 287 285 282 279 276 272 269 268 271 271 271 272 272 271 269 268 267 266 266 266 266 267 268 269 270 271 273 272 273 273 274 276 277 277 277 279 280 279 278 277
294 293 295 295 292 288 286 283 279 274 271 272 272 272 273 273 272 270 270 269 268 266 266 266 264 265 265 267 268 269 270 271 271 270 272 273 274 275 276 275 277 277 278 278
304 306 306 301 297 295 293 289 286 284 281 277 275 273 273 273 270 269 268 267 267 266 265 264 263 262 262 263 265 266 267 268 269 269 269 270 271 272 273 274 275 276 277 279
314 313 310 308 306 306 302 298 296 293 286 280 274 272 269 266 265 264 265 267 266 263 263 261 259 258 258 259 261 263 265 267 269 270 270 269 269 269 273 274 276 279 279 280
331 327 321 316 314 312 309 305 302 298 293 284 273 264 260 255 256 257 261 261 259 258 258 257 256 256 256 258 260 262 264 267 270 271 272 272 270 270 271 273 274 277 279 281
336 330 324 321 319 317 315 315 313 308 302 290 273 259 253 249 250 252 253 255 256 257 256 256 255 256 257 258 261 263 266 268 270 271 272 271 270 269 269 269 271 274 278 282
341 339 335 331 327 323 322 322 325 324 308 288 271 254 248 250 251 252 254 259 260 259 258 257 257 257 258 260 263 266 268 269 270 271 271 270 269 268 267 268 269 271 275 278
341 339 340 337 336 335 334 334 336 335 323 281 264 257 253 253 252 252 257 259 260 260 259 257 257 259 260 262 264 266 268 270 271 271 270 269 267 265 265 265 268 271 273 275
345 342 341 341 343 345 344 345 346 345 342 309 275 270 268 273 265 259 259 264 264 262 259 257 257 258 260 262 264 267 268 269 269 268 267 266 264 262 261 263 265 267 271 275
349 347 350 350 352 352 353 356 359 0 359 349 308 302 299 295 294 283 272 268 264 260 257 257 257 258 260 263 265 266 267 268 267 266 265 264 261 259 259 262 264 266 268 272
354 354 355 358 360 359 1 4 8 10 8 4 347 333 332 325 314 304 284 267 257 254 253 254 259 261 262 264 265 266 267 266 264 263 261 260 258 258 258 259 261 262 263 266
359 359 4 7 5 6 9 11 15 19 17 13 7 4 356 354 348 343 329 293 249 242 246 255 262 262 265 267 265 265 265 264 262 259 257 256 255 256 259 260 259 259 258 259
3 2 8 11 12 13 17 19 23 24 24 23 22 22 19 18 18 30 41 46 58 60 207 204 217 242 257 264 274 265 266 265 262 259 257 254 254 256 256 253 248 244 244 242
8 8 13 15 15 16 21 25 28 30 29 27 30 32 30 33 41 46 53 53 55 61 66 78 88 109 105 80 77 75 71 73 62 60 75 70 359 294 241 233 259 254 249 246
15 16 19 22 23 23 26 28 30 33 34 38 43 46 43 46 46 48 51 50 53 58 62 66 72 76 78 75 72 67 63 63 61 61 62 54 46 39 27 7 328 301 280 269
22 23 26 31 29 27 30 32 33 35 39 44 47 49 46 47 51 53 54 55 56 58 62 63 63 63 63 63 62 60 56 55 56 55 51 45 37 25 10 352 329 312 296 287
26 27 30 34 31 31 34 34 36 39 43 45 48 51 52 53 54 56 56 55 55 55 56 57 57 57 56 55 55 54 52 49 46 42 37 30 19 4 346 331 318 307 298 292
28 29 31 34 34 35 34 35 37 38 41 44 47 50 53 54 56 57 57 55 54 53 53 53 53 53 54 53 51 50 49 45 40 34 26 18 8 358 347 335 323 312 303 296
29 30 30 32 36 37 35 35 35 36 39 43 45 46 48 50 54 56 56 54 52 51 51 51 50 50 49 49 49 48 45 41 36 31 26 19 11 4 355 344 333 322 311 301
28 29 29 31 33 35 33 33 31 32 38 39 42 44 47 50 53 53 53 52 51 50 50 49 47 48 48 48 48 47 45 43 40 37 33 27 22 16 8 360 350 340 328 315
25 27 28 29 31 33 31 31 30 31 33 37 42 44 46 49 50 51 51 51 50 49 48 47 49 50 50 50 50 49 48 45 43 39 34 29 24 19 13 7 0 353 345 335
23 24 26 27 29 30 29 29 29 29 30 34 39 42 45 48 51 53 52 50 50 49 49 50 50 51 51 51 51 50 48 46 42 38 33 29 26 22 18 14 10 6 1 357
21 22 23 24 25 27 28 28 28 26 27 30 35 38 42 47 50 51 51 50 50 49 50 51 51 52 53 52 50 48 46 43 39 35 31 28 25 23 21 20 18 15 12 10
17 19 20 21 23 24 24 24 25 23 22 25 31 36 41 45 47 48 49 50 50 51 51 52 52 53 52 50 49 45 42 38 35 32 29 28 27 26 25 24 23 22 21 20
6 12 16 19 22 23 22 22 22 21 20 22 28 34 40 44 47 48 50 51 51 52 54 54 53 52 49 47 43 39 36 34 32 30 28 29 29 28 28 28 28 28 29 29
345 357 5 12 16 19 20 20 21 21 20 21 24 31 36 42 46 48 50 51 51 53 54 52 50 48 44 40 37 34 32 31 30 29 30 30 30 29 30 31 32 34 35 35
Height
5878 5877 5875 5874 5873 5872 5870 5868 5868 5867 5864 5863 5862 5860 5860 5859 5859 5860 5862 5863 5863 5864 5865 5868 5870 5870 5871 5871 5872 5873 5873 5875 5875 5876 5876 5876 5876 5876 5877 5877 5877 5876 5876 5877
5874 5872 5871 5869 5867 5865 5863 5860 5858 5857 5855 5853 5852 5851 5851 5850 5849 5850 5851 5852 5852 5854 5856 5857 5860 5861 5862 5863 5864 5865 5865 5866 5867 5868 5869 5869 5868 5868 5869 5870 5871 5871 5870 5870
5870 5868 5866 5863 5860 5858 5855 5851 5848 5846 5844 5843 5841 5841 5840 5839 5838 5838 5839 5840 5841 5844 5845 5847 5849 5851 5853 5854 5855 5856 5857 5857 5858 5859 5860 5860 5859 5859 5860 5862 5863 5864 5864 5864
5867 5864 5861 5858 5854 5850 5847 5842 5839 5835 5832 5831 5831 5829 5831 5828 5826 5826 5827 5829 5831 5833 5835 5837 5839 5842 5843 5845 5846 5847 5848 5848 5849 5849 5850 5851 5850 5849 5851 5853 5854 5855 5856 5856
5863 5860 5857 5853 5849 5844 5839 5834 5829 5824 5820 5817 5818 5818 5820 5818 5817 5818 5818 5819 5820 5823 5826 5828 5830 5833 5834 5836 5837 5838 5839 5840 5840 5840 5840 5841 5841 5841 5843 5844 5845 5846 5847 5847
5861 5857 5853 5848 5843 5837 5832 5827 5821 5814 5809 5807 5809 5810 5810 5808 5807 5808 5809 5809 5810 5813 5816 5819 5821 5824 5826 5827 5829 5830 5831 5831 5831 5832 5832 5832 5833 5833 5835 5835 5836 5837 5837 5838
5857 5853 5848 5843 5838 5832 5826 5820 5814 5808 5804 5802 5802 5802 5801 5800 5800 5801 5800 5801 5803 5805 5808 5810 5813 5815 5817 5819 5820 5821 5821 5822 5822 5822 5823 5823 5824 5824 5825 5826 5826 5828 5829 5830
5855 5850 5845 5839 5834 5827 5821 5815 5810 5804 5800 5798 5797 5795 5795 5793 5793 5793 5793 5793 5795 5797 5799 5801 5803 5805 5807 5809 5810 5811 5811 5812 5812 5812 5813 5813 5814 5815 5816 5817 5818 5819 5820 5821
5853 5848 5843 5836 5830 5825 5818 5812 5807 5802 5798 5796 5794 5793 5790 5789 5787 5786 5787 5787 5788 5789 5790 5792 5794 5796 5798 5799 5800 5801 5801 5801 5802 5802 5803 5803 5804 5805 5807 5808 5809 5810 5811 5812
5851 5847 5841 5835 5829 5823 5817 5811 5807 5802 5798 5796 5794 5791 5789 5786 5784 5782 5782 5782 5783 5783 5784 5785 5787 5788 5790 5791 5791 5792 5792 5792 5793 5793 5794 5794 5795 5797 5798 5800 5801 5802 5803 5804
5850 5845 5840 5834 5828 5823 5817 5812 5807 5803 5799 5797 5794 5794 5788 5785 5783 5781 5779 5779 5779 5779 5780 5781 5782 5783 5784 5784 5784 5785 5785 5785 5785 5786 5787 5787 5788 5789 5791 5792 5793 5795 5796 5796
5850 5845 5840 5835 5829 5823 5818 5813 5809 5806 5802 5798 5796 5797 5790 5787 5784 5781 5779 5778 5778 5778 5778 5779 5780 5780 5780 5780 5780 5781 5781 5781 5781 5781 5782 5782 5783 5784 5785 5786 5787 5788 5789 5790
5850 5845 5839 5834 5831 5826 5820 5815 5811 5808 5805 5801 5799 5799 5792 5789 5786 5783 5781 5780 5779 5778 5778 5778 5779 5779 5779 5779 5779 5779 5779 5779 5779 5779 5779 5780 5780 5781 5782 5782 5783 5783 5784 5786
5850 5845 5841 5837 5832 5827 5823 5818 5814 5811 5807 5804 5801 5799 5796 5793 5790 5787 5785 5783 5782 5781 5780 5779 5779 5780 5780 5780 5780 5780 5780 5780 5779 5779 5779 5780 5780 5780 5781 5781 5781 5782 5783 5785
5851 5846 5841 5837 5833 5829 5825 5821 5818 5814 5811 5807 5804 5802 5800 5797 5794 5791 5789 5787 5786 5784 5784 5783 5783 5782 5782 5782 5782 5782 5782 5781 5781 5781 5781 5781 5781 5780 5781 5781 5781 5782 5782 5783
5852 5848 5843 5839 5835 5832 5828 5825 5821 5818 5815 5811 5809 5806 5804 5801 5798 5796 5794 5792 5791 5789 5788 5787 5787 5786 5786 5785 5785 5785 5784 5784 5784 5783 5783 5782 5782 5782 5782 5781 5781 5781 5781 5781
5855 5850 5845 5842 5839 5835 5831 5829 5825 5822 5819 5817 5814 5812 5809 5806 5804 5802 5799 5798 5796 5795 5793 5792 5791 5791 5790 5789 5788 5788 5787 5786 5786 5785 5784 5784 5783 5782 5782 5781 5780 5779 5778 5777
5858 5853 5849 5845 5842 5838 5838 5832 5830 5827 5824 5821 5818 5816 5813 5811 5809 5807 5805 5803 5802 5800 5799 5797 5796 5794 5793 5792 5791 5790 5789 5789 5788 5787 5785 5784 5783 5782 5781 5779 5778 5776 5775 5773
5861 5857 5853 5849 5845 5842 5840 5837 5834 5831 5828 5825 5823 5820 5818 5816 5814 5811 5809 5808 5806 5805 5803 5801 5800 5798 5797 5795 5794 5793 5792 5791 5789 5788 5786 5785 5783 5781 5779 5777 5775 5773 5771 5768
5865 5861 5857 5852 5849 5846 5845 5841 5838 5836 5832 5829 5827 5825 5822 5820 5818 5816 5814 5812 5810 5809 5807 5805 5803 5802 5800 5798 5797 5796 5794 5793 5791 5789 5788 5786 5784 5781 5779 5776 5773 5770 5767 5764
5869 5865 5860 5856 5853 5850 5847 5844 5842 5840 5838 5834 5831 5829 5827 5824 5823 5821 5818 5817 5815 5813 5811 5809 5807 5805 5804 5802 5801 5799 5797 5796 5794 5792 5789 5787 5784 5781 5778 5775 5771 5767 5763 5760
5871 5868 5864 5860 5857 5856 5850 5847 5846 5843 5840 5837 5835 5833 5831 5829 5827 5825 5823 5821 5819 5817 5815 5813 5812 5810 5808 5806 5804 5803 5801 5799 5797 5795 5792 5789 5786 5782 5778 5774 5770 5766 5761 5757
5874 5871 5867 5864 5862 5858 5854 5851 5849 5846 5843 5841 5839 5837 5835 5833 5831 5829 5827 5826 5824 5822 5820 5818 5816 5814 5813 5811 5809 5807 5805 5802 5800 5798 5795 5791 5788 5784 5779 5775 5771 5766 5762 5757
5876 5872 5870 5866 5863 5860 5857 5854 5851 5849 5846 5843 5841 5840 5838 5836 5835 5833 5831 5830 5828 5826 5824 5822 5821 5819 5817 5815 5813 5811 5809 5806 5804 5801 5797 5794 5790 5786 5782 5778 5773 5768 5763 5759
5877 5874 5872 5869 5866 5863 5860 5857 5854 5852 5849 5846 5844 5842 5840 5839 5838 5836 5835 5833 5832 5830 5828 5827 5825 5823 5821 5819 5817 5815 5812 5809 5807 5804 5800 5797 5793 5790 5785 5781 5776 5771 5766 5761
5877 5875 5873 5871 5868 5866 5863 5860 5857 5854 5851 5849 5846 5844 5843 5841 5840 5839 5838 5836 5835 5833 5832 5830 5829 5827 5825 5823 5820 5818 5815 5812 5810 5807 5803 5800 5797 5793 5789 5785 5780 5776 5770 5765